GW0421 Weather Reports


Display with metric or nautical units.
time (UTC)temp
F
wind
direction
speed
MPH
gust
MPH
rain 1hr
in
rain 24hr
in
rain mn
in
humidity
%
barometer
mb
20260510220159 71 87 3.0 12.0 0.00 0.16 0.16 27 1022.3
20260510215522 71 53 4.0 11.0 0.00 0.16 0.16 27 1022.0
20260510215023 71 46 5.0 13.0 0.00 0.16 0.16 28 1021.9
20260510214552 71 78 4.0 13.0 0.00 0.16 0.16 29 1022.0
20260510214016 71 61 4.0 12.0 0.00 0.16 0.16 30 1022.0
20260510213520 70 63 2.0 11.0 0.00 0.16 0.16 29 1022.0
20260510213139 71 345 5.0 14.0 0.00 0.16 0.16 27 1021.8
20260510212528 71 350 6.0 14.0 0.00 0.16 0.16 27 1022.1
20260510212031 71 69 4.0 11.0 0.00 0.16 0.16 28 1022.1
20260510211647 71 22 3.0 11.0 0.00 0.16 0.16 29 1022.1
20260510211023 71 105 5.0 11.0 0.00 0.16 0.16 29 1022.1
20260510210538 70 87 1.0 9.0 0.00 0.16 0.16 33 1022.0
20260510210118 69 79 2.0 11.0 0.00 0.16 0.16 31 1022.1
20260510205525 69 113 2.0 12.0 0.00 0.16 0.16 33 1021.9
20260510205020 69 346 3.0 12.0 0.00 0.16 0.16 35 1022.0
20260510204641 69 60 3.0 10.0 0.00 0.16 0.16 33 1021.9
20260510204026 69 61 2.0 11.0 0.00 0.16 0.16 31 1021.9
20260510203536 69 29 2.0 11.0 0.00 0.16 0.16 30 1022.1
20260510203140 70 352 4.0 10.0 0.00 0.16 0.16 31 1022.0
20260510202517 70 336 2.0 10.0 0.00 0.16 0.16 33 1022.1
20260510202026 69 342 5.0 15.0 0.00 0.16 0.16 31 1022.3
20260510201634 69 323 6.0 13.0 0.00 0.16 0.16 32 1022.1
20260510201037 69 86 2.0 9.0 0.00 0.16 0.16 31 1021.9
20260510200532 69 67 4.0 12.0 0.00 0.16 0.16 32 1021.9
20260510200144 69 118 4.0 18.0 0.00 0.16 0.16 31 1022.0
20260510195518 69 5 12.0 18.0 0.00 0.16 0.16 32 1022.0
20260510195043 69 323 5.0 11.0 0.00 0.16 0.16 31 1022.1
20260510194637 69 101 6.0 11.0 0.00 0.16 0.16 31 1022.0
20260510194031 68 61 5.0 11.0 0.00 0.16 0.16 31 1022.4
20260510193524 68 36 5.0 15.0 0.00 0.16 0.16 31 1022.3
20260510193140 68 339 7.0 15.0 0.00 0.16 0.16 30 1022.5
20260510192525 68 360 6.0 11.0 0.00 0.16 0.16 30 1022.5
20260510192023 69 62 6.0 11.0 0.00 0.16 0.16 31 1022.5
20260510191644 68 24 2.0 11.0 0.00 0.16 0.16 32 1022.6
20260510191024 68 321 5.0 12.0 0.00 0.16 0.16 33 1022.6
20260510190525 67 44 4.0 12.0 0.00 0.16 0.16 34 1022.5
20260510190208 67 336 4.0 12.0 0.00 0.16 0.16 34 1022.8
20260510185520 66 9 4.0 10.0 0.00 0.16 0.16 34 1022.9
20260510185031 66 68 3.0 8.0 0.00 0.16 0.16 33 1022.8
20260510184705 66 38 2.0 9.0 0.00 0.16 0.16 33 1022.8
20260510184030 66 91 4.0 12.0 0.00 0.16 0.16 35 1022.9
20260510183516 67 61 5.0 12.0 0.00 0.16 0.16 33 1022.8
20260510183142 67 87 4.0 12.0 0.00 0.16 0.16 35 1022.7
20260510182520 67 63 7.0 12.0 0.00 0.16 0.16 36 1022.6
20260510182017 66 42 3.0 12.0 0.00 0.16 0.16 39 1022.7
20260510181641 66 65 3.0 11.0 0.00 0.16 0.16 40 1022.8
20260510181015 66 79 4.0 11.0 0.00 0.16 0.16 41 1022.6
20260510180540 65 98 6.0 11.0 0.00 0.16 0.16 41 1022.6
20260510180203 65 86 4.0 13.0 0.00 0.16 0.16 43 1022.5
20260510175536 65 51 5.0 13.0 0.00 0.16 0.16 41 1022.5
20260510175030 64 51 4.0 12.0 0.00 0.16 0.16 44 1022.4
20260510174656 64 88 4.0 13.0 0.00 0.16 0.16 44 1022.5
20260510174025 64 80 7.0 13.0 0.00 0.16 0.16 44 1022.5
20260510173518 63 103 9.0 18.0 0.00 0.16 0.16 47 1022.3
20260510173209 63 99 8.0 18.0 0.00 0.16 0.16 46 1022.3
20260510172527 63 44 4.0 14.0 0.00 0.16 0.16 49 1022.3
20260510172027 62 66 9.0 14.0 0.00 0.16 0.16 48 1022.2
20260510171711 61 88 9.0 16.0 0.00 0.16 0.16 47 1022.1
20260510171025 61 86 10.0 16.0 0.00 0.16 0.16 47 1022.2
20260510170544 61 109 7.0 15.0 0.00 0.16 0.16 49 1022.4
20260510170224 61 76 9.0 15.0 0.00 0.16 0.16 51 1022.4
20260510165522 60 99 5.0 14.0 0.00 0.16 0.16 53 1022.5
20260510165031 59 98 8.0 15.0 0.00 0.16 0.16 54 1022.6
20260510164715 59 78 10.0 15.0 0.00 0.16 0.16 54 1022.5
20260510164026 58 18 8.0 15.0 0.00 0.16 0.16 55 1022.7
20260510163519 58 56 6.0 10.0 0.00 0.16 0.16 58 1022.6
20260510163157 57 15 3.0 9.0 0.00 0.16 0.16 60 1022.6
20260510162525 57 78 6.0 10.0 0.00 0.16 0.16 59 1022.6
20260510162030 56 77 4.0 10.0 0.00 0.16 0.16 60 1022.7
20260510161634 56 76 7.0 11.0 0.00 0.16 0.16 60 1022.6
20260510161044 56 67 6.0 11.0 0.00 0.16 0.16 61 1022.5
20260510160516 56 76 5.0 10.0 0.00 0.16 0.16 61 1022.5
20260510160246 56 77 4.0 13.0 0.00 0.16 0.16 62 1022.4
20260510155540 55 76 6.0 13.0 0.00 0.16 0.16 62 1022.5
20260510155038 55 47 6.0 13.0 0.00 0.16 0.16 62 1022.5
20260510154711 55 66 5.0 14.0 0.00 0.16 0.16 63 1022.4
20260510154021 55 89 6.0 14.0 0.00 0.16 0.16 63 1022.4
20260510153542 55 96 7.0 12.0 0.00 0.16 0.16 64 1022.2
20260510153128 55 90 4.0 10.0 0.00 0.16 0.16 67 1022.1
20260510152533 54 72 5.0 10.0 0.00 0.16 0.16 67 1022.0
20260510152033 54 59 3.0 10.0 0.00 0.16 0.16 68 1022.0
20260510151713 54 59 4.0 9.0 0.00 0.16 0.16 69 1022.0
20260510151023 54 89 3.0 9.0 0.00 0.16 0.16 70 1021.8
20260510150532 54 100 4.0 8.0 0.00 0.16 0.16 70 1021.7
20260510150225 53 114 4.0 11.0 0.00 0.16 0.16 71 1021.7
20260510145542 53 60 4.0 11.0 0.00 0.16 0.16 71 1021.7
20260510145038 53 103 5.0 11.0 0.00 0.16 0.16 71 1021.7
20260510144640 53 53 5.0 11.0 0.00 0.16 0.16 72 1021.7
20260510144019 52 84 6.0 16.0 0.00 0.16 0.16 73 1021.4
20260510143513 52 62 6.0 16.0 0.00 0.16 0.16 74 1021.3
20260510143210 52 57 4.0 11.0 0.00 0.16 0.16 76 1021.4
20260510142529 52 107 4.0 13.0 0.00 0.16 0.16 76 1021.5
20260510142020 52 84 6.0 12.0 0.00 0.16 0.16 77 1021.3
20260510141711 52 69 3.0 10.0 0.00 0.16 0.16 79 1021.4
20260510141032 52 91 5.0 10.0 0.00 0.16 0.16 80 1021.3
20260510140537 51 107 3.0 8.0 0.00 0.16 0.16 80 1021.3
20260510140208 51 126 2.0 9.0 0.00 0.16 0.16 81 1020.9
20260510135527 51 101 2.0 13.0 0.00 0.16 0.16 81 1020.9
20260510135040 51 115 2.0 13.0 0.00 0.16 0.16 82 1021.0
20260510134647 52 69 4.0 9.0 0.00 0.16 0.16 83 1020.8
20260510134018 52 209 1.0 8.0 0.00 0.16 0.16 83 1020.7
20260510133522 52 85 2.0 8.0 0.00 0.16 0.16 84 1020.7
20260510133208 52 166 1.0 8.0 0.00 0.16 0.16 85 1020.7
20260510132531 52 94 1.0 8.0 0.00 0.16 0.16 86 1020.5
20260510132039 51 173 1.0 6.0 0.00 0.16 0.16 86 1020.0
20260510131711 51 66 1.0 5.0 0.00 0.16 0.16 86 1019.8
20260510131032 50 298 0.0 6.0 0.00 0.16 0.16 86 1019.9
20260510130538 50 114 1.0 6.0 0.00 0.16 0.16 85 1019.8
20260510130205 50 312 1.0 5.0 0.00 0.16 0.16 85 1020.0
20260510125519 50 150 1.0 8.0 0.01 0.16 0.16 85 1019.9
20260510125019 50 150 0.0 8.0 0.01 0.16 0.16 85 1019.5
20260510124539 50 117 1.0 6.0 0.01 0.16 0.16 85 1019.2
20260510124034 50 74 1.0 6.0 0.01 0.16 0.16 85 1019.3
20260510123539 50 188 0.0 6.0 0.02 0.16 0.16 85 1019.1
20260510123203 51 138 0.0 8.0 0.03 0.16 0.16 85 1019.2
20260510122532 51 261 1.0 8.0 0.03 0.16 0.16 85 1019.3
20260510122018 51 317 2.0 9.0 0.03 0.16 0.16 84 1019.0
20260510121611 51 294 2.0 13.0 0.04 0.16 0.16 85 1018.9
20260510121037 51 355 5.0 13.0 0.04 0.16 0.16 84 1018.7
20260510120531 51 163 0.0 12.0 0.04 0.16 0.16 83 1018.3
20260510120210 52 74 7.0 12.0 0.04 0.16 0.16 83 1017.6
20260510115543 52 89 7.0 10.0 0.04 0.14 0.14 83 1017.6
20260510115032 52 84 5.0 9.0 0.04 0.14 0.14 82 1018.0
20260510114642 52 79 4.0 6.0 0.06 0.14 0.14 82 1018.1
20260510114043 52 92 3.0 5.0 0.06 0.14 0.14 82 1018.0
20260510113517 52 115 1.0 5.0 0.08 0.14 0.14 81 1018.1
20260510113206 52 139 0.0 7.0 0.08 0.13 0.13 81 1018.1
20260510112536 52 102 4.0 7.0 0.09 0.13 0.13 80 1017.9
20260510112034 52 108 1.0 3.0 0.12 0.13 0.13 80 1018.3
20260510111638 52 223 0.0 3.0 0.12 0.12 0.12 80 1018.6
20260510111018 52 344 0.0 6.0 0.12 0.12 0.12 79 1018.4
20260510110535 53 325 3.0 8.0 0.11 0.11 0.11 79 1018.4
20260510110210 53 329 0.0 4.0 0.11 0.11 0.11 77 1018.3
20260510105530 53 5 1.0 8.0 0.11 0.11 0.11 76 1018.1
20260510105021 53 336 3.0 8.0 0.09 0.09 0.09 75 1018.1
20260510104650 54 51 0.0 2.0 0.09 0.09 0.09 74 1018.1
20260510104019 54 329 0.0 2.0 0.07 0.07 0.07 73 1018.1
20260510103546 54 9 0.0 4.0 0.06 0.06 0.06 72 1017.8
20260510103155 55 97 0.0 4.0 0.04 0.04 0.04 70 1017.7
20260510102517 55 158 0.0 4.0 0.03 0.03 0.03 68 1017.3
20260510102024 55 17 0.0 7.0 0.00 0.00 0.00 65 1017.3
20260510101640 55 155 0.0 8.0 0.00 0.00 0.00 64 1017.0
20260510101031 55 22 1.0 8.0 0.00 0.00 0.00 63 1016.4
20260510100523 55 23 1.0 6.0 0.00 0.00 0.00 63 1016.3
20260510100206 55 19 1.0 10.0 0.00 0.00 0.00 63 1016.3
20260510095533 55 140 1.0 10.0 0.00 0.00 0.00 63 1016.2
20260510095041 55 151 1.0 13.0 0.00 0.00 0.00 63 1016.2
20260510094649 55 108 4.0 13.0 0.00 0.00 0.00 64 1016.3
20260510094036 55 87 2.0 11.0 0.00 0.00 0.00 64 1016.0
20260510093517 55 101 3.0 11.0 0.00 0.00 0.00 65 1016.0
20260510093149 55 279 3.0 13.0 0.00 0.00 0.00 66 1016.2
20260510092523 55 318 3.0 13.0 0.00 0.00 0.00 67 1016.0
20260510092042 56 360 4.0 10.0 0.00 0.00 0.00 68 1015.9
20260510091656 56 290 3.0 10.0 0.00 0.00 0.00 68 1015.7
20260510091023 56 53 3.0 11.0 0.00 0.00 0.00 68 1015.9
20260510090519 56 158 3.0 11.0 0.00 0.00 0.00 69 1016.0
20260510090221 56 258 3.0 9.0 0.00 0.00 0.00 69 1016.0
20260510085522 56 297 2.0 9.0 0.00 0.00 0.00 69 1016.0
20260510085030 56 232 2.0 12.0 0.00 0.00 0.00 69 1015.9
20260510084649 56 297 4.0 12.0 0.00 0.00 0.00 69 1015.7
20260510084018 56 32 6.0 11.0 0.00 0.00 0.00 68 1015.8
20260510083527 56 147 5.0 14.0 0.00 0.00 0.00 68 1015.7
20260510083119 56 360 5.0 15.0 0.00 0.00 0.00 68 1015.8
20260510082516 56 11 7.0 17.0 0.00 0.00 0.00 69 1016.0
20260510082020 56 313 11.0 17.0 0.00 0.00 0.00 69 1015.9
20260510081637 56 300 9.0 16.0 0.00 0.00 0.00 70 1015.9
20260510081013 56 311 10.0 16.0 0.00 0.00 0.00 70 1016.0
20260510080531 56 325 10.0 14.0 0.00 0.00 0.00 71 1016.0
20260510080120 56 314 10.0 13.0 0.00 0.00 0.00 71 1016.0
20260510075539 56 298 8.0 14.0 0.00 0.00 0.00 71 1016.0
20260510075017 56 319 8.0 14.0 0.00 0.00 0.00 71 1016.1
20260510074711 56 326 8.0 11.0 0.00 0.00 0.00 71 1016.0
20260510074039 56 310 5.0 10.0 0.00 0.00 0.00 71 1015.7
20260510073528 56 319 3.0 8.0 0.00 0.00 0.00 71 1015.7
20260510073155 56 279 3.0 9.0 0.00 0.00 0.00 71 1015.5
20260510072522 56 317 2.0 9.0 0.00 0.00 0.00 71 1015.3
20260510072029 56 9 4.0 9.0 0.00 0.00 0.00 72 1015.1
20260510071741 56 302 3.0 8.0 0.00 0.00 0.00 72 1015.2
20260510071037 57 26 2.0 8.0 0.00 0.00 0.00 71 1014.9
20260510070527 57 302 4.0 8.0 0.00 0.00 0.00 71 1015.0
20260510070200 57 290 1.0 6.0 0.00 0.00 0.00 71 1015.0
20260510065519 57 262 4.0 10.0 0.00 0.00 0.00 70 1014.6
20260510065027 58 306 2.0 10.0 0.00 0.00 0.00 70 1014.7
20260510064715 58 36 2.0 9.0 0.00 0.00 0.00 70 1014.6
20260510064037 58 86 1.0 7.0 0.00 0.00 0.00 70 1014.5
20260510063530 58 219 1.0 7.0 0.00 0.00 0.00 70 1014.5
20260510063211 58 169 1.0 6.0 0.00 0.00 0.00 70 1014.5
20260510062542 58 184 1.0 7.0 0.00 0.00 0.00 71 1014.4
20260510062037 58 95 2.0 7.0 0.00 0.00 0.00 71 1014.3
20260510061702 58 193 1.0 7.0 0.00 0.00 0.00 71 1014.2
20260510061021 58 63 2.0 10.0 0.00 0.00 0.00 72 1014.0
20260510060530 58 136 3.0 10.0 0.00 0.00 0.00 73 1013.8
20260510060240 58 37 2.0 8.0 0.00 0.00 0.00 73 1013.7
20260510055518 58 300 0.0 8.0 0.00 0.00 0.00 73 1013.7
20260510055029 58 153 1.0 4.0 0.00 0.00 0.00 73 1013.3
20260510054704 59 88 1.0 6.0 0.00 0.00 0.00 72 1013.2
20260510054036 59 209 1.0 7.0 0.00 0.00 0.00 72 1013.1
20260510053518 59 159 2.0 7.0 0.00 0.00 0.00 72 1013.0
20260510053133 59 90 2.0 6.0 0.00 0.00 0.00 72 1012.9
20260510052519 59 138 2.0 6.0 0.00 0.00 0.00 72 1013.2
20260510052040 58 139 1.0 4.0 0.00 0.00 0.00 72 1013.1
20260510051637 58 124 1.0 7.0 0.00 0.00 0.00 73 1013.0
20260510051038 58 117 3.0 7.0 0.00 0.00 0.00 73 1013.0
20260510050526 58 131 1.0 6.0 0.00 0.00 0.00 72 1012.9
20260510050152 59 200 1.0 3.0 0.00 0.00 0.00 72 1012.9
20260510045521 59 92 0.0 3.0 0.00 0.00 0.00 72 1012.9
20260510045037 59 97 0.0 5.0 0.00 0.00 0.00 71 1012.8
20260510044641 59 80 2.0 5.0 0.00 0.00 0.00 71 1012.8
20260510044032 59 89 2.0 7.0 0.00 0.00 0.00 71 1012.7
20260510043519 59 63 2.0 7.0 0.00 0.00 0.00 70 1012.7
20260510043140 60 115 1.0 4.0 0.00 0.00 0.00 70 1012.6
20260510042523 60 68 1.0 7.0 0.00 0.00 0.00 69 1012.6
20260510042039 60 118 1.0 6.0 0.00 0.00 0.00 69 1012.4
20260510041637 60 51 3.0 7.0 0.00 0.00 0.00 68 1012.3
20260510041019 60 93 2.0 7.0 0.00 0.00 0.00 68 1012.2
20260510040522 60 104 1.0 4.0 0.00 0.00 0.00 67 1012.3
20260510040124 60 87 2.0 4.0 0.00 0.00 0.00 66 1012.3
20260510035531 60 110 1.0 4.0 0.00 0.00 0.00 65 1011.9
20260510035017 61 104 0.0 5.0 0.00 0.00 0.00 64 1011.7
20260510034636 61 36 1.0 6.0 0.00 0.00 0.00 63 1011.6
20260510034033 61 67 3.0 10.0 0.00 0.00 0.00 63 1011.2
20260510033543 61 59 4.0 10.0 0.00 0.00 0.00 63 1010.9
20260510033132 61 69 4.0 10.0 0.00 0.00 0.00 63 1010.9
20260510032523 61 88 6.0 10.0 0.00 0.00 0.00 63 1010.9
20260510032027 62 98 3.0 9.0 0.00 0.00 0.00 62 1010.8
20260510031622 62 98 4.0 9.0 0.00 0.00 0.00 61 1010.6
20260510031023 62 76 4.0 7.0 0.00 0.00 0.00 61 1010.6
20260510030539 62 93 4.0 8.0 0.00 0.00 0.00 61 1010.5
20260510030139 63 88 4.0 8.0 0.00 0.00 0.00 61 1010.5
20260510025543 63 85 3.0 8.0 0.00 0.00 0.00 61 1010.4
20260510025043 63 48 2.0 9.0 0.00 0.00 0.00 61 1010.2
20260510024643 63 82 4.0 9.0 0.00 0.00 0.00 61 1010.0
20260510024023 64 77 5.0 9.0 0.00 0.00 0.00 60 1009.6
20260510023531 64 71 4.0 11.0 0.00 0.00 0.00 59 1009.4
20260510023137 64 101 6.0 11.0 0.00 0.00 0.00 58 1009.2
20260510022521 65 92 7.0 10.0 0.00 0.00 0.00 58 1009.1
20260510022018 65 93 7.0 10.0 0.00 0.00 0.00 57 1009.1
20260510021632 66 82 7.0 13.0 0.00 0.00 0.00 56 1009.0
20260510021047 66 88 7.0 12.0 0.00 0.00 0.00 56 1008.8
20260510020543 66 84 8.0 14.0 0.00 0.00 0.00 55 1008.4
20260510020157 66 82 8.0 16.0 0.00 0.00 0.00 55 1008.6
20260510015537 67 91 9.0 15.0 0.00 0.00 0.00 55 1008.5
20260510015026 67 89 10.0 15.0 0.00 0.00 0.00 55 1008.2
20260510014630 67 91 10.0 17.0 0.00 0.00 0.00 53 1007.8
20260510014023 68 96 12.0 17.0 0.00 0.00 0.00 52 1007.6
20260510013532 69 103 12.0 17.0 0.00 0.00 0.00 52 1007.6
20260510013133 69 96 10.0 17.0 0.00 0.00 0.00 51 1007.6
20260510012531 69 118 11.0 17.0 0.00 0.00 0.00 52 1007.6
20260510012038 70 99 12.0 18.0 0.00 0.00 0.00 51 1007.6
20260510011633 70 97 12.0 19.0 0.00 0.00 0.00 51 1007.5
20260510011031 70 103 12.0 19.0 0.00 0.00 0.00 52 1007.3
20260510010527 70 103 11.0 15.0 0.00 0.00 0.00 52 1007.3
20260510010200 70 110 11.0 15.0 0.00 0.00 0.00 54 1007.4
20260510005544 71 103 10.0 15.0 0.00 0.00 0.00 54 1007.4
20260510005024 71 103 10.0 15.0 0.00 0.00 0.00 54 1007.2
20260510004639 71 108 10.0 16.0 0.00 0.00 0.00 54 1007.0
20260510004014 71 92 11.0 14.0 0.00 0.00 0.00 56 1007.3
20260510003537 71 107 11.0 13.0 0.00 0.00 0.00 56 1007.3
20260510003118 71 104 9.0 16.0 0.00 0.00 0.00 56 1007.5
20260510002538 72 105 10.0 16.0 0.00 0.00 0.00 53 1007.3
20260510002031 72 115 10.0 18.0 0.00 0.00 0.00 53 1007.3
20260510001612 73 117 13.0 18.0 0.00 0.00 0.00 51 1007.5
20260510001039 73 139 12.0 17.0 0.00 0.00 0.00 50 1007.2
20260510000542 73 119 12.0 17.0 0.00 0.00 0.00 48 1007.2
20260510000126 74 115 10.0 15.0 0.00 0.00 0.00 50 1007.0
20260509235526 74 126 9.0 14.0 0.00 0.00 0.00 50 1007.1
20260509235018 75 106 11.0 16.0 0.00 0.00 0.00 50 1007.0
20260509234614 75 133 10.0 22.0 0.00 0.00 0.00 47 1006.5
20260509234031 75 123 9.0 23.0 0.00 0.00 0.00 49 1006.8
20260509233520 76 101 6.0 10.0 0.00 0.00 0.00 47 1006.9
20260509233128 77 200 2.0 8.0 0.00 0.00 0.00 46 1007.5
20260509232520 79 269 4.0 8.0 0.00 0.00 0.00 38 1007.6
20260509232023 80 360 3.0 8.0 0.00 0.00 0.00 37 1007.4
20260509231619 80 360 1.0 25.0 0.00 0.00 0.00 30 1006.9
20260509231043 80 360 4.0 31.0 0.00 0.00 0.00 30 1007.3
20260509230543 81 257 5.0 13.0 0.00 0.00 0.00 33 1007.2
20260509230148 81 360 1.0 9.0 0.00 0.00 0.00 27 1006.6
20260509225523 81 360 4.0 13.0 0.00 0.00 0.00 27 1006.1
20260509225036 82 360 5.0 14.0 0.00 0.00 0.00 26 1006.0
20260509224618 82 360 10.0 14.0 0.00 0.00 0.00 25 1005.9
20260509224032 82 360 7.0 14.0 0.00 0.00 0.00 25 1005.8
20260509223541 83 120 10.0 17.0 0.00 0.00 0.00 25 1005.9
20260509223147 83 213 9.0 16.0 0.00 0.00 0.00 25 1006.0
20260509222522 83 208 12.0 22.0 0.00 0.00 0.00 24 1006.0
20260509222018 84 216 10.0 18.0 0.00 0.00 0.00 26 1006.2
20260509221623 84 173 12.0 18.0 0.00 0.00 0.00 25 1006.1
20260509221027 84 125 10.0 15.0 0.00 0.00 0.00 24 1006.2
20260509220930 85 134 10.0 17.0 0.00 0.00 0.00 24 1006.5
20260509220925 83 209 6.0 14.0 0.00 0.00 0.00 24 1006.9
20260509220922 83 195 9.0 13.0 0.00 0.00 0.00 25 1007.1
20260509220918 84 360 10.0 17.0 0.00 0.00 0.00 24 1007.5
20260509220914 85 202 7.0 12.0 0.00 0.00 0.00 22 1007.7
20260509220911 86 214 8.0 15.0 0.00 0.00 0.00 21 1007.8
20260509220909 86 165 11.0 17.0 0.00 0.00 0.00 21 1008.0
20260509220903 85 173 8.0 16.0 0.00 0.00 0.00 21 1007.9
20260509220857 83 188 6.0 18.0 0.00 0.00 0.00 21 1008.3
20260509220854 86 168 8.0 16.0 0.00 0.00 0.00 21 1008.3
20260509220850 85 165 11.0 17.0 0.00 0.00 0.00 20 1008.4
20260509220847 86 202 11.0 16.0 0.00 0.00 0.00 19 1008.6
20260509220843 86 174 9.0 25.0 0.00 0.00 0.00 19 1008.6
20260509220837 85 201 9.0 17.0 0.00 0.00 0.00 19 1008.5